Погода в Знаменке

Россия / Тамбовская область     52°28′29″N   40°35′03″E
темп.,
°C
ветер,
м/с
пор.,
м/с
влажн.,
%
обл.,
%
осадки,
мм/ч
давл.,
гПа
погр.,
м
22 января, сб
сб2200:00−7ю61392100 0.0 1006331
03:00−9ю6129459 0.0 1007252
06:00−10ю5129577 0.0 1007242
09:00−10ю5119596 0.1 1009241
12:00−8ю4109472 0.0 1010306
15:00−6ююв489596 0.1 1011293
18:00−9ююв4897100 0.1 1014157
21:00−10ююв379899 0.1 1016104
23 января, вс
вс2300:00−11ююв3697100 0.0 1017102
03:00−13ююв359880 0.1 101966
06:00−17юв2210097 0.0 102131
09:00−16юв2299100 0.1 102421
12:00−9в1294100 0.0 102572
15:00−7ссв2495100 0.0 1026102
18:00−8ссв4996100 0.0 1028189
21:00−7св51192100 0.0 1028278
24 января, пн
пн2400:00−7ссв61295100 0.1 1029294
03:00−5св61194100 0.5 1029349
06:00−5всв5119396 0.1 1029340
09:00−6всв51190100 0.1 1031335
12:00−6всв51187100 0.0 1031383
15:00−6всв5108899 0.0 1031324
18:00−10всв499391 0.0 1031153
21:00−12всв389498 0.0 1031111
25 января, вт
вт2500:00−13всв389495 0.0 1030129
03:00−13в389598 0.0 1029134
06:00−15всв3597100 0.0 102860
09:00−13вюв3996100 0.0 1027158
12:00−8юв489492 0.0 1025282
15:00−7юв379591 0.1 1024309
18:00−9юв399677 0.1 1024191
21:00−9юв399795 0.1 1023143
26 января, ср
ср2600:00−4ю41095100 0.1 1021492
03:00−3ююв4994100 0.1 1020475
06:00−5ю5109393 0.1 1020470
09:00−7ю51194100 0.1 1020344
12:00−6ю5119495 0.0 1020519
15:00−7ююв4993100 0.1 1019436
18:00−9ююв3897100 0.0 1020163
21:00−9ю499679 0.1 1019217